WESTFORD NEEDLES, 2375

Orbit data source: Space-Track

WESTFORD NEEDLES, 2375 is space debris in LEO originally from a launch on Thu, 09 May 1963 UTC launched from the Air Force Western Test Range (AFWTR). Debris objects in space refer to the collection of defunct objects orbiting the Earth. Examples of debris include non-operational satellites, rocket bodies, and fragments generated from explosions, collisions, or faulty payload assembly.

Loading next visibility...
Identifier
2375, 1963-014W
Orbit
LEO
Country
Flag of USUS
Related business
Manufacturer
Unknown
Mission
Spacecraft
Bus & Motor
Unknown
Mass
Unknown
Launch date (UTC)
1963-05-09 (63 years ago)
Launch vehicle
Unknown
Launch site
Air Force Western Test Range (AFWTR)
Object type
Payload
Rocket body
Debris
Shape & HBR
Unknown shape, 0.3 m
Radar Cross Section
Medium (>0.1 m² and <1 m²)

Expand to show TLE details & history
Last TLE update: 3 days ago

TLE from 3 days ago
0 WESTFORD NEEDLES
1 02375U 63014W   26172.37892411  .00002318  00000-0  26271+0 0  9995
2 02375  86.5540  51.7731 1614247 170.2605 193.3988  8.74899365371794
Epoch: 2026-06-21T09:05Z
TLE epoch observation values (Epoch: 2026-06-21T09:05:39.043Z)
Latitude
0.00005°
Longitude
5.78038°
Altitude
5,146.425 km
Speed
5.396 km/s
True Right ascension
03h 27m 05s
True Declination
0° 00' 00"
Sunlit
Object was in daylight at epoch
Visualization orbit readout
Latitude
Unknown
Longitude
Unknown
Altitude
Unknown
Speed
Unknown
Apparent Right ascension
Unknown
Apparent Declination
Unknown
Sunlit
N/A
Visualization observer readout
Local Sidereal Time
04:24:32
Azimuth
Unknown
Elevation
Unknown
Doppler factor
Unknown
Orbital elements
Apogee altitude
5,173.805 km
Perigee altitude
1,962.63 km
Semi-major axis
9,946.355 km
Eccentricity
0.16142
Inclination
86.554°
RAAN
51.7731°
Arg. of periapsis
170.2605°
True anomaly
189.82125°
Mean anomaly
193.3988°
Eccentric anomaly
191.54736°
Mean motion
2.188 °/min
Orbital period
164.53 mins
BSTAR
0.26271
Loading maneuver chart data...
Computing Atmospheric mass density...

Documentation

Showing up to 5 results
|